"Pseudo-MPEC" for P10Lm7w

Created 2019 Jan 17 17:18:24 UT using Find_Orb

Click here for an explanation of pseudo-MPECs

 
 Astrometry: 
     P10Lm7w  C2019 01 03H=JUg-CqAXU,JX0AstrometryGA8_%Qiu9-Tmw_8yVcTwpQI7o[lF51
     P10Lm7w  C2019 01 03$8%/\!IiU@oT?%qM#g$XMaJ(l)HEOL8.5N/^=?T74c09Z]pH;vZBF51
     P10Lm7w  C2019 01 03)=xAK4I5L@T'WBjg[J$,L?(-a@lfJZ8SQkOV%xE+?y2PuV1'B=-yF51
     P10Lm7w  C2019 01 10t\wKML\,J'7C[$tVZlg;4^IP^=.#XQGRgDX:p:tulVplgP^.FLmoF51
     P10Lm7w  C2019 01 10!w*y/xo#yjxkb/;.vEl*kw`u(M`7qWlHalW9aZl+37GBRUrx!i@TF51
     P10Lm7w  C2019 01 10\3@+NfgMQ43dKZ`$jXk4Eredacted;eBO[Y:k`wXZ(,FxMNOaam3F51
     P10Lm7w  C2019 01 111TlPPvec6VJ34^ot+H3Q=NE*IRuirBTi*Vep@UDio(8Cg`y8=N7!691
     P10Lm7w  C2019 01 11Oub3R']L]p3xVf%V@qMo.N!Q%vmy%h;ltwPFZn:[oXk57!U.N$pW691
     P10Lm7w ^C2019 01 11.36870707 35 23.027+18 33 25.89   ~1BKI 20.33GVNEOCP568
     P10Lm7w ^C2019 01 11.36989707 35 22.954+18 33 26.54   ~1BKI 20.39GVNEOCP568
     P10Lm7w  C2019 01 11Z7QM2N#XbKO`D4Q3Shh[G_8L-u(V0bm;5%Cl8+qgaWePcxV@xwg]691
     P10Lm7w ^C2019 01 11.37109707 35 22.885+18 33 27.19   ~1BKI 20.45GVNEOCP568
     P10Lm7w KC2019 01 11u^n7NM4te@F,[#q1foA\6tZW1JqV5m0d,XU4`j.K0TXE2)1RyRiiL01
     P10Lm7w pC2019 01 11nb?XL%k(9QrV\0h[BrlOKEnKAncH@10`D6e5rY@Dclick[PZk?hkL01
     P10Lm7w KC2019 01 113d2v2Sbvm,22A_k;]EL4n/BeY*Tw=r0m*=Uda8v\QBQ5w-N;AB%cL27
     P10Lm7w 9C2019 01 11gF2q=Aw')jW?uSq00H=^c^[hv'#l=B3cT_Zu6;XLRV#f6K^N4vcWG40
     P10Lm7w KC2019 01 11xs,XR[oGnOsF+SILCt0Lb`5s9O1I[fG/^-gjh\7\f1\qd+CbY-4vL27
     P10Lm7w 9C2019 01 120hG1w`reP`!hwgSY_=?\YxDmtlqD-J%q8\6@TUqnV9EDl%]cx?CPG40
     P10Lm7w KC2019 01 12p1(AJ.#:)1oK9Ko+*Rn\Lk3i(^Sia#UiE%QsZ4h4nmMsc2Xo[:uLL27
     P10Lm7w HC2019 01 12Lu-otf!w_5e'J3tQ,]dd-yY(K,hereG4L?fRoMHC9#@R8_YbrSnY691
     P10Lm7w HC2019 01 12Z6=\JiUjAJ=CnVFh._(A!Tuog@'er8u,)lhS[DDWH;Tpr!9Z:uVo691
     P10Lm7w HC2019 01 126C91OB$rO9pMJriYi;Z\ONW+C`6bWacm*Y4x7,M*U/txh=9yB*0N691
     P10Lm7w  C2019 01 12.47555 07 34 17.43 +18 43 10.0    ~1CCI       VNEOCPI52
     P10Lm7w  C2019 01 12.47851 07 34 17.20 +18 43 11.7    ~1CCI 20.2 GVNEOCPI52
     P10Lm7w  C2019 01 12.48279 07 34 16.91 +18 43 14.3    ~1CCI 19.5 GVNEOCPI52
     P10Lm7w  C2019 01 12.48576 07 34 16.75 +18 43 16.2    ~1CCI 19.4 GVNEOCPI52
     P10Lm7w 1C2019 01 12-*0ccDaT*h8`wG[uiRhk,1O_WA#!$)..nqKlXYwq]xsrsbKb.WM]Q62
     P10Lm7w 1C2019 01 12MM#[ut`g,?a6_cN2LSN40!q8gfa1'4^+I3Y/f(?'ruf\IRb#'vg(Q62
     P10Lm7w 1C2019 01 15;.?1RY@,yKuFW$y?[o.b6Xv0_7?Xfor7P0JK=J'B*wQ3UP,6V!l(658
     P10Lm7w 1C2019 01 15oBbYlgPpIM!KJR9%\Eo8Ga0eD-Y]xdom,1RSWI*$M.0fglf\^gwn658
     P10Lm7w 1C2019 01 15OM!5_'Al8jnBHuPX=J(S.IQWUL3@+AIXB8q#Yc$18L-i_I`/+nrT658
     P10Lm7w 1C2019 01 15V],iYD:\WXR[ikbv4GyNV*B(^AWGGsPWV65Z;L8s$MI5m76lfGQb658
     P10Lm7w  C2019 01 15.24843 07 31 34.70 +19 07 44.2    ~1F7I 20.1 GVNEOCPI52
     P10Lm7w  C2019 01 15.25159 07 31 34.42 +19 07 46.4    ~1F7I 19.4 GVNEOCPI52
     P10Lm7w  C2019 01 15.25777 07 31 34.09 +19 07 48.8    ~1F7I 19.6 GVNEOCPI52
     P10Lm7w  C2019 01 15.26227 07 31 33.84 +19 07 51.9    ~1F7I 19.6 GVNEOCPI52
     P10Lm7w KC2019 01 16ZAb72cLlXR^+WfGZUnrla8mlTB[8)LCdH`UZ#'[4?@E+g%:\Q,wiK38
     P10Lm7w KC2019 01 16Y+4C-txgQZG2nfR9Ksrf/JL`m)kVb(5G3TjeAAEh-m/9`Z23v]M6K38
     P10Lm7w KC2019 01 16$R)@e]0QXQP^x/w^DcqD9.KP92J5u,9(iYmLCDexplanation*tOK38
     P10Lm7w  C2019 01 17.17730 07 29 41.76 +19 24 47.7    ~1H5I       VNEOCPI52
     P10Lm7w  C2019 01 17.18055 07 29 41.64 +19 24 51.0    ~1H5I 19.3 GVNEOCPI52
     P10Lm7w  C2019 01 17.18434 07 29 41.36 +19 24 51.8    ~1H5I 19.4 GVNEOCPI52
     P10Lm7w  C2019 01 17.18751 07 29 41.24 +19 24 53.4    ~1H5I 19.3 GVNEOCPI52

Station data:
(568) Mauna Kea  (N19.826116 W155.472200)  US/Hawaii.
(658) Dominion Astrophysical Observatory  (N48.519987 W123.417000)
   Canada/BritColumbia. 1.82-m Plaskett reflector.
(691) Steward Observatory, Kitt Peak - Spacewatch  (N31.962174 W111.600327)
   US/Arizona.  Observer J. V. Scotti. 0.9-m f/3 reflector + CCD.
(F51) Pan-STARRS 1, Haleakala  (N20.707235 W156.255910)  US/Hawaii.
   Observers N. Primak, A. Schultz, S. Watters, J. Thiel, T. Goggia. Measurer
   PS1 Science Consortium. 1.8-m Ritchey-Chrétien + CCD.
(G40) Slooh.com Canary Islands Observatory  (N28.299720 W16.508260)  Canary
   Islands (Spain).  Observers G. Gašparović, Y. Chen. 0.43-m f/6.8 Corrected
   Dall-Kirkham + CCD.
(I52) Steward Observatory, Mt. Lemmon Station  (N32.442547 W110.788920)
   US/Arizona.  Observers B. M. Africano, E. J. Christensen, G. A. Farneth,
   D. C. Fuls, A. R. Gibbs, A. D. Grauer, H. Groeller, J. A. Johnson, R. A.
   Kowalski, S. M. Larson, G. J. Leonard, R. L. Seaman, F. C. Shelly. 1.0-m
   reflector + CCD.
(K38) M57 Observatory, Saltrio  (N45.873785 E8.918240)  Italy.
(L01) Višnjan Observatory, Tičan  (N45.290900 E13.749300)  Croatia.
   Observers K. Korlević, E. Pettarin. Measurer E. Pettarin. 1.0-m f/2.9
   reflector + CCD.
(L27) 29PREMOTE Observatory, Dauban  (N43.999847 E5.647040)  France.
(Q62) iTelescope Observatory, Siding Spring  (S31.273289 E149.064420)
   Australia/NSW. 0.50-m f/6.8 astrograph + CCD + focal reducer, 0.70-m f/6.6
   astrograph + CCD.

Orbital elements:  P10Lm7w
   Perihelion 2018 Nov 29.437600 +/- 1.92 TT = 10:30:08 (JD 2458451.937600)
Epoch 2019 Jan 17.0 TT = JDT 2458500.5                        AutoNEOCP
M  11.37646681 +/- 0.46             (J2000 ecliptic)
n   0.23426491 +/- 0.000543         Peri.  339.88676 +/- 0.6
a   2.60614080 +/- 0.00403          Node   119.42424 +/- 0.06
e   0.0957516 +/- 0.00307           Incl.   13.02049 +/- 0.15
P   4.21                   H 17.4   G  0.15   U  7.7  
q 2.35659862 +/- 0.0116    Q 2.85568298 +/- 0.00363
From 43 observations 2019 Jan. 3-17; mean residual 0".49
Residuals in arcseconds: 
190103 F51  .01+  .20-    190111 G40  .50-  .23+    190115 658  .18-  .12+    
190103 F51  .29-  .26-    190111 L27  .79-  .45+    190115 658  .19-  .26+    
190103 F51  .44-  .24-    190112 G40  .58-  .70+    190115 I52  .88+  .14-    
190110 F51  .66+  .14-    190112 L27  .67-  .24+    190115 I52  .36-  .37+    
190110 F51  .45+  .07+    190112 691  .57-  .31+    190115 I52  .31+  .54-    
190110 F51  .74+  .02+    190112 691  .15-  .11+    190115 I52  .67+  .16+    
190111 691  .06+  .18+    190112 691  .44-  .41+    190116 K38  .64-  .73-    
190111 691  .29+  .19+    190112 I52  .53+  .48-    190116 K38  .08+  1.1-    
190111 568  1.0+  .18-    190112 I52  .21-  .32-    190116 K38  .38-  .39+    
190111 568  1.0+  .17-    190112 I52  .68-  .05+    190117 I52  .59-  .61-    
190111 691  .94-  .10+    190112 I52  .42-  .40+    190117 I52  .47+  .94+    
190111 568  1.1+  .16-    190112 Q62  .26+  .38-    190117 I52  .27-  .30-    
190111 L01  .46-  .02+    190112 Q62  .74+  .04+    190117 I52  .73+  .40-    
190111 L01  .54+  .41-    190115 658  .38-  .17+    
190111 L27  .48-  .88+    190115 658  .27-  .12+    

Ephemerides (geocentric):
Date (UTC) HH   RA              Dec         delta   r     elong  mag " sig PA
---- -- -- --  -------------   -----------  ------ ------ -----  --- ---- ---
2019 01 17 17  07 29 10.616   +19 29 31.64  1.3827 2.3628 173.5 20.2 .249  63
2019 01 17 18  07 29 08.194   +19 29 53.71  1.3828 2.3628 173.5 20.2 .256  64
2019 01 17 19  07 29 05.773   +19 30 15.78  1.3828 2.3628 173.4 20.2 .263  64
2019 01 17 20  07 29 03.353   +19 30 37.84  1.3829 2.3628 173.4 20.2 .270  65
2019 01 17 21  07 29 00.933   +19 30 59.90  1.3830 2.3628 173.3 20.3 .278  66
2019 01 17 22  07 28 58.513   +19 31 21.96  1.3830 2.3628 173.3 20.3 .285  66
2019 01 17 23  07 28 56.095   +19 31 44.02  1.3831 2.3628 173.2 20.3 .293  67
2019 01 18 00  07 28 53.677   +19 32 06.08  1.3831 2.3628 173.2 20.3 .301  68
2019 01 18 01  07 28 51.259   +19 32 28.13  1.3832 2.3628 173.1 20.3 .308  68
2019 01 18 02  07 28 48.843   +19 32 50.18  1.3833 2.3628 173.1 20.3 .316  69
2019 01 18 03  07 28 46.427   +19 33 12.23  1.3833 2.3629 173.0 20.3 .324  69
2019 01 18 04  07 28 44.012   +19 33 34.27  1.3834 2.3629 173.0 20.3 .333  70
2019 01 18 05  07 28 41.597   +19 33 56.31  1.3835 2.3629 172.9 20.3 .341  70
2019 01 18 06  07 28 39.183   +19 34 18.35  1.3835 2.3629 172.9 20.3 .349  71
2019 01 18 07  07 28 36.770   +19 34 40.39  1.3836 2.3629 172.8 20.3 .358  71
2019 01 18 08  07 28 34.358   +19 35 02.42  1.3837 2.3629 172.8 20.3 .367  72
2019 01 18 09  07 28 31.946   +19 35 24.46  1.3838 2.3629 172.7 20.3 .375  72
2019 01 18 10  07 28 29.535   +19 35 46.48  1.3838 2.3629 172.7 20.3 .384  73
2019 01 18 11  07 28 27.125   +19 36 08.51  1.3839 2.3629 172.6 20.3 .394  73
2019 01 18 12  07 28 24.715   +19 36 30.53  1.3840 2.3630 172.6 20.3 .403  73
2019 01 18 13  07 28 22.306   +19 36 52.56  1.3840 2.3630 172.5 20.3 .412  74
2019 01 18 14  07 28 19.898   +19 37 14.57  1.3841 2.3630 172.5 20.3 .422  74
2019 01 18 15  07 28 17.491   +19 37 36.59  1.3842 2.3630 172.4 20.3 .431  75
2019 01 18 16  07 28 15.085   +19 37 58.60  1.3843 2.3630 172.4 20.3 .441  75
2019 01 18 17  07 28 12.679   +19 38 20.61  1.3843 2.3630 172.3 20.3 .451  75
2019 01 18 18  07 28 10.274   +19 38 42.62  1.3844 2.3630 172.3 20.3 .461  76
2019 01 18 19  07 28 07.870   +19 39 04.62  1.3845 2.3630 172.3 20.3 .471  76
2019 01 18 20  07 28 05.466   +19 39 26.62  1.3845 2.3630 172.2 20.3 .481  76
2019 01 18 21  07 28 03.064   +19 39 48.62  1.3846 2.3630 172.2 20.3 .491  77
2019 01 18 22  07 28 00.662   +19 40 10.61  1.3847 2.3631 172.1 20.3 .502  77
2019 01 18 23  07 27 58.261   +19 40 32.60  1.3848 2.3631 172.1 20.3 .512  77
2019 01 19 00  07 27 55.860   +19 40 54.59  1.3849 2.3631 172.0 20.3 .523  78
2019 01 19 01  07 27 53.461   +19 41 16.57  1.3849 2.3631 172.0 20.3 .534  78
2019 01 19 02  07 27 51.062   +19 41 38.55  1.3850 2.3631 171.9 20.3 .545  78
2019 01 19 03  07 27 48.665   +19 42 00.53  1.3851 2.3631 171.9 20.3 .556  79
2019 01 19 04  07 27 46.268   +19 42 22.51  1.3852 2.3631 171.8 20.3 .567  79
2019 01 19 05  07 27 43.872   +19 42 44.48  1.3852 2.3631 171.8 20.3 .579  79
2019 01 19 06  07 27 41.476   +19 43 06.45  1.3853 2.3631 171.7 20.3 .590  79
2019 01 19 07  07 27 39.082   +19 43 28.41  1.3854 2.3632 171.7 20.3 .602  80
2019 01 19 08  07 27 36.688   +19 43 50.37  1.3855 2.3632 171.6 20.3 .614  80
2019 01 19 09  07 27 34.296   +19 44 12.33  1.3856 2.3632 171.6 20.3 .625  80
2019 01 19 10  07 27 31.904   +19 44 34.29  1.3856 2.3632 171.5 20.3 .637  80
2019 01 19 11  07 27 29.513   +19 44 56.24  1.3857 2.3632 171.5 20.3 .650  81
2019 01 19 12  07 27 27.123   +19 45 18.19  1.3858 2.3632 171.4 20.3 .662  81
2019 01 19 13  07 27 24.733   +19 45 40.13  1.3859 2.3632 171.4 20.3 .674  81
2019 01 19 14  07 27 22.345   +19 46 02.07  1.3860 2.3632 171.3 20.3 .687  81
2019 01 19 15  07 27 19.958   +19 46 24.01  1.3861 2.3632 171.3 20.3 .700  82
2019 01 19 16  07 27 17.571   +19 46 45.94  1.3861 2.3632 171.2 20.3 .712  82